Wind_Speed
55 55 55 55 56 57 57 57 57 57 56 56 56 57 57 58 58 58 58 58 59 59 59 60 60 61 61 61 61 61 61 60 60 60 60 60 60 61
55 55 55 56 56 57 57 57 57 58 57 57 57 58 58 58 59 59 59 59 59 60 60 61 61 61 62 63 62 62 62 61 61 61 61 61 61 61
55 55 56 55 55 56 56 56 57 58 59 58 58 58 58 59 60 60 60 60 60 61 61 61 61 62 62 62 63 63 63 62 62 62 63 63 63 63
53 53 54 55 55 56 55 55 56 56 58 58 58 58 58 59 60 60 60 61 62 62 62 63 63 62 63 63 64 63 63 63 63 64 64 64 64 65
53 53 53 54 55 55 55 55 55 56 57 57 58 58 58 58 59 60 61 61 61 62 62 63 63 63 63 64 64 64 64 64 64 64 65 65 65 65
53 53 54 54 55 55 55 55 55 55 55 56 57 57 58 57 58 58 59 60 61 61 62 62 63 64 63 64 64 64 64 64 65 65 65 65 65 65
53 53 53 53 54 54 54 54 55 55 55 55 55 56 56 56 57 57 58 58 59 59 60 62 62 63 63 63 63 63 63 63 64 65 65 65 65 64
52 52 52 52 52 53 53 54 54 54 54 54 54 54 54 55 56 56 56 57 57 58 58 59 59 60 62 62 61 62 63 63 63 64 64 64 64 64
52 52 52 51 52 52 53 53 53 53 54 53 52 52 52 54 54 54 55 55 55 56 57 56 56 57 58 59 60 61 62 62 62 61 61 62 62 63
51 50 50 49 50 50 51 51 51 51 51 51 51 51 51 52 52 52 52 53 54 54 54 53 54 54 54 55 56 57 58 59 60 61 61 60 61 61
49 49 49 48 48 48 49 49 49 49 48 49 50 50 49 50 51 51 51 51 51 51 51 51 51 52 52 52 53 54 54 55 57 58 58 59 59 59
49 49 48 47 47 47 47 47 47 47 48 48 48 48 48 49 49 50 50 50 49 49 49 50 50 51 50 50 51 51 52 53 54 54 55 55 56 57
48 48 48 48 48 47 47 47 47 47 47 47 47 46 46 47 47 47 48 48 48 47 48 48 48 48 48 47 47 48 49 50 50 51 51 52 53 55
45 46 47 48 48 48 47 46 47 47 46 46 46 46 46 46 46 47 47 47 47 47 47 47 46 46 45 45 45 46 47 48 48 48 49 50 50 51
43 44 45 46 47 47 47 46 47 47 47 46 45 45 45 45 46 46 46 46 46 45 45 45 44 44 44 44 44 44 45 45 46 47 47 47 48 48
42 43 44 45 45 46 46 46 46 45 45 45 45 45 44 44 44 44 44 44 44 44 43 43 42 43 43 43 43 43 44 44 45 45 45 45 45 46
42 42 42 43 43 44 44 44 44 44 44 43 44 43 43 43 42 42 43 43 43 42 42 41 41 42 42 42 42 43 43 43 43 44 44 43 44 45
40 40 40 40 41 41 41 41 40 41 41 41 42 42 42 42 42 41 41 41 42 41 41 41 40 41 41 41 41 42 42 42 42 42 43 42 42 43
39 38 38 38 39 39 40 39 39 39 39 40 40 40 40 40 41 41 41 40 40 40 40 40 40 40 40 39 40 41 41 41 41 41 41 42 41 41
38 37 37 37 37 38 39 39 39 39 39 38 39 39 40 39 39 39 39 39 39 38 38 39 39 39 39 39 38 39 40 40 40 40 40 40 40 41
38 37 37 37 37 37 37 37 38 38 38 38 38 38 38 39 38 38 38 37 37 37 37 37 38 38 38 38 37 37 38 39 39 39 39 39 39 39
37 37 37 37 37 37 37 37 37 38 38 38 38 38 38 37 37 37 37 37 37 37 37 37 38 38 38 37 37 37 37 37 38 38 39 39 39 38
37 37 36 37 37 37 37 37 37 37 37 38 38 38 38 37 37 37 37 36 36 36 37 37 37 37 37 37 36 35 35 35 36 36 36 37 38 37
Wind_Direction
261 261 262 262 262 263 262 262 261 260 259 260 261 261 262 262 263 262 262 262 262 262 263 263 263 264 265 265 266 266 266 265 266 266 266 266 267 266
262 262 262 263 263 263 262 261 261 260 259 260 261 262 263 263 263 263 263 263 263 263 264 264 264 264 265 265 265 265 265 266 266 266 266 266 266 267
262 262 262 263 263 263 262 262 261 260 260 261 262 262 263 264 264 263 263 263 263 264 264 264 266 266 265 265 265 265 265 266 266 266 266 267 267 267
263 263 263 263 263 263 262 262 261 261 262 262 262 262 263 264 264 264 264 264 264 265 265 265 266 267 266 266 265 265 266 266 266 266 267 267 268 268
263 263 263 263 263 262 262 262 261 262 262 262 263 263 263 264 264 264 265 265 265 266 266 266 266 267 267 266 266 266 266 267 267 267 267 268 268 268
262 263 263 262 262 262 262 262 262 262 262 263 264 264 264 264 264 265 265 266 267 267 267 266 266 267 267 267 267 267 267 267 267 267 268 268 268 269
261 262 262 262 262 262 262 262 262 261 262 263 264 265 265 265 265 265 266 267 267 268 267 267 267 267 268 268 268 268 268 268 267 267 268 268 269 269
261 261 261 262 262 261 261 262 262 262 262 263 264 265 266 266 266 266 267 267 267 268 268 268 268 269 269 269 269 269 269 268 268 268 268 268 269 269
260 261 261 261 261 261 261 262 262 263 263 264 265 265 266 266 267 266 266 267 267 268 268 268 269 269 269 270 270 269 269 269 269 269 269 269 269 269
259 260 261 261 261 261 261 261 261 262 264 264 263 264 265 265 266 266 267 267 267 269 269 270 270 271 272 271 271 270 270 270 269 269 270 270 270 270
260 260 259 260 260 260 261 261 262 262 263 263 263 263 264 265 265 265 267 268 268 269 270 271 271 272 273 273 272 272 271 271 271 270 271 270 270 271
258 258 258 259 259 260 261 261 261 262 262 263 263 263 264 265 265 265 267 268 269 269 270 271 272 272 273 272 272 272 272 273 272 272 272 272 271 271
258 258 257 258 259 260 261 261 261 261 261 261 262 263 264 265 265 266 268 269 269 270 270 271 272 273 272 272 272 273 273 274 274 274 274 274 273 272
259 258 258 257 258 259 260 261 261 261 261 262 262 263 265 265 266 267 268 269 269 270 270 271 272 273 273 274 274 274 275 276 276 276 276 276 275 274
260 260 259 258 258 259 259 259 260 260 261 262 263 264 264 264 265 266 267 268 268 269 270 270 272 273 274 275 275 275 276 276 277 278 278 278 277 276
261 260 260 259 259 258 258 258 259 259 260 260 262 263 263 264 265 266 266 266 267 268 269 270 272 274 275 276 276 276 276 276 276 277 278 277 277 277
262 262 261 259 258 258 257 257 258 259 259 260 261 261 262 263 264 265 266 266 266 267 269 271 273 274 275 275 276 277 277 277 277 278 278 277 277 277
260 261 261 260 258 257 256 256 257 258 259 260 261 262 263 264 265 265 266 266 267 268 269 270 272 273 274 275 277 277 278 278 278 278 278 277 278 278
259 260 260 260 259 257 257 256 258 260 260 260 261 262 263 264 265 266 267 268 268 268 269 270 272 273 275 276 276 277 278 278 279 278 278 278 279 279
258 259 258 259 259 258 258 259 260 261 262 262 262 263 264 264 265 266 267 268 268 268 269 270 271 273 275 276 276 277 279 280 280 280 279 279 280 280
257 257 257 258 258 258 258 259 260 261 261 263 263 264 264 265 266 266 267 267 267 268 269 270 271 273 275 276 277 278 279 280 282 283 282 281 281 281
257 257 257 258 257 257 258 259 260 261 262 263 263 264 265 266 266 266 266 266 267 267 268 270 271 273 275 277 277 278 279 280 283 284 286 286 285 283
256 256 256 257 257 258 259 260 261 261 263 264 264 264 265 266 266 267 267 267 267 267 268 269 271 273 275 277 278 279 279 280 282 283 285 286 286 284
Height
5625 5626 5627 5629 5630 5631 5632 5633 5635 5636 5638 5639 5640 5641 5642 5643 5644 5645 5646 5647 5649 5651 5652 5654 5655 5656 5657 5658 5659 5659 5660 5661 5662 5663 5664 5665 5665 5666
5610 5611 5613 5613 5614 5615 5616 5617 5619 5621 5623 5625 5625 5626 5626 5628 5628 5629 5630 5632 5633 5635 5636 5637 5638 5639 5640 5641 5641 5642 5643 5644 5645 5646 5647 5647 5648 5649
5595 5597 5598 5598 5599 5600 5600 5601 5603 5604 5607 5609 5609 5610 5611 5612 5612 5613 5614 5615 5617 5618 5619 5620 5621 5622 5622 5623 5624 5625 5626 5627 5628 5629 5629 5630 5630 5632
5581 5581 5582 5583 5584 5585 5585 5586 5587 5589 5591 5593 5593 5594 5595 5596 5596 5597 5598 5599 5600 5601 5602 5603 5603 5604 5605 5605 5606 5607 5609 5609 5610 5611 5612 5613 5613 5612
5566 5567 5567 5568 5569 5570 5570 5571 5572 5574 5575 5576 5578 5578 5579 5579 5580 5581 5581 5582 5583 5584 5585 5585 5586 5586 5587 5588 5588 5590 5591 5592 5593 5593 5593 5593 5593 5594
5551 5552 5553 5553 5554 5555 5556 5557 5557 5558 5559 5560 5562 5562 5563 5563 5564 5565 5565 5565 5566 5567 5567 5568 5568 5568 5569 5570 5572 5572 5572 5572 5573 5574 5574 5574 5575 5575
5536 5537 5538 5538 5539 5540 5541 5541 5542 5543 5544 5545 5546 5547 5547 5548 5548 5548 5549 5549 5550 5550 5550 5550 5551 5552 5551 5552 5552 5552 5553 5553 5554 5554 5555 5555 5556 5556
5521 5522 5523 5523 5524 5525 5526 5527 5527 5528 5529 5530 5531 5532 5532 5533 5533 5533 5533 5534 5535 5535 5533 5533 5533 5533 5533 5534 5534 5534 5534 5534 5535 5535 5536 5536 5537 5537
5507 5507 5508 5509 5509 5510 5511 5512 5513 5514 5515 5516 5516 5517 5518 5518 5519 5519 5518 5518 5519 5518 5517 5518 5517 5516 5516 5516 5515 5515 5515 5516 5516 5517 5517 5517 5518 5518
5492 5493 5494 5495 5495 5496 5497 5497 5499 5500 5501 5502 5503 5503 5503 5503 5503 5504 5503 5504 5504 5503 5502 5502 5502 5501 5501 5500 5499 5498 5498 5498 5498 5499 5499 5499 5499 5499
5478 5478 5479 5481 5482 5482 5483 5484 5485 5487 5487 5487 5488 5488 5489 5489 5490 5490 5490 5489 5490 5489 5488 5488 5487 5487 5486 5485 5483 5482 5482 5482 5481 5481 5481 5481 5481 5481
5464 5465 5466 5467 5468 5468 5469 5471 5472 5473 5473 5474 5474 5475 5475 5476 5476 5476 5476 5476 5475 5476 5475 5474 5473 5472 5472 5471 5469 5468 5467 5466 5466 5465 5465 5464 5464 5463
5450 5451 5453 5453 5454 5455 5456 5457 5459 5459 5460 5460 5461 5462 5462 5462 5463 5463 5462 5462 5462 5462 5461 5460 5459 5458 5457 5457 5456 5454 5453 5452 5451 5450 5449 5448 5447 5446
5436 5438 5439 5440 5441 5442 5443 5444 5445 5445 5446 5447 5448 5449 5449 5449 5449 5449 5449 5448 5448 5448 5447 5446 5446 5445 5444 5443 5443 5441 5439 5438 5437 5436 5435 5434 5432 5431
5423 5424 5425 5426 5427 5429 5430 5431 5431 5432 5433 5434 5435 5436 5436 5436 5436 5436 5435 5435 5435 5434 5433 5433 5432 5432 5431 5430 5430 5428 5427 5425 5423 5422 5421 5420 5418 5417
5410 5411 5411 5412 5413 5415 5416 5417 5418 5419 5420 5421 5422 5422 5422 5423 5423 5423 5422 5422 5422 5422 5421 5420 5419 5419 5418 5417 5417 5416 5414 5413 5411 5409 5408 5407 5405 5403
5397 5398 5398 5399 5400 5402 5403 5404 5405 5406 5407 5408 5408 5409 5410 5410 5410 5410 5409 5409 5409 5409 5409 5408 5407 5406 5406 5405 5404 5403 5401 5400 5398 5397 5395 5394 5392 5390
5384 5385 5386 5387 5388 5389 5390 5392 5393 5394 5394 5395 5396 5396 5397 5397 5397 5397 5397 5397 5397 5397 5397 5396 5396 5395 5395 5394 5393 5391 5389 5388 5386 5385 5383 5382 5381 5378
5372 5373 5374 5375 5376 5377 5378 5380 5381 5382 5382 5383 5384 5384 5385 5385 5385 5385 5385 5385 5385 5385 5385 5384 5384 5384 5384 5383 5382 5379 5377 5376 5374 5373 5371 5370 5369 5367
5360 5362 5363 5364 5365 5366 5367 5368 5369 5370 5371 5371 5372 5372 5373 5373 5373 5374 5374 5374 5374 5374 5373 5373 5373 5372 5372 5371 5371 5369 5366 5364 5362 5361 5359 5358 5356 5355
5349 5350 5351 5352 5353 5354 5355 5356 5357 5358 5359 5359 5360 5361 5361 5362 5362 5362 5362 5363 5363 5363 5363 5363 5362 5361 5360 5360 5360 5358 5356 5353 5350 5349 5347 5346 5344 5343
5337 5338 5339 5340 5342 5343 5344 5345 5346 5347 5347 5348 5349 5349 5350 5350 5351 5351 5351 5351 5352 5352 5352 5351 5351 5350 5350 5349 5348 5347 5345 5343 5340 5337 5335 5333 5331 5330
5325 5326 5327 5329 5330 5331 5332 5333 5334 5335 5336 5337 5337 5338 5338 5339 5339 5340 5340 5340 5341 5341 5341 5340 5340 5340 5339 5338 5337 5336 5335 5333 5330 5328 5326 5323 5320 5318